SCP
0 0 0 0 0 0 0 0 0 0 0 0 0 0 0 0 0 0 0 0 0 0 0 0 0 0 0 0 0 0 0 0 0 0 0 0 0 0
0 0 0 0 0 0 0 0 0 0 0 0 0 0 0 0 0 0 0 0 0 0 0 0 0 0 0 0 0 0 0 0 0 0 0 0 0 0
0 0 0 0 0 0 0 0 0 0 0 0 0 0 0 0 0 0 0 0 0 0 0 0 0 0 0 0 0 0 0 0 0 0 0 0 0 0
0 0 0 0 0 0 0 0 0 0 0 0 0 0 0 0 0 0 0 0 0 0 0 0 0 0 0 0 0 0 0 0 0 0 0 0 0 0
0 0 0 0 0 0 0 0 0 0 0 0 0 0 0 0 0 0 0 0 0 0 0 0 0 0 0 0 0 0 0 0 0 0 0 0 0 0
0 0 0 0 0 0 0 0 0 0 0 0 0 0 0 0 0 0 0 0 0 0 0 0 0 0 0 0 0 0 0 0 0 0 0 0 0 0
0 0 0 0 0 0 0 0 0 0 0 0 0 0 0 0 0 0 0 0 0 0 0 0 0 0 0 0 0 0 0 0 0 0 0 0 0 0
0 0 0 0 0 0 0 0 0 0 0 0 0 0 0 0 0 0 0 0 0 0 0 0 0 0 0 0 0 0 0 0 0 0 0 0 0 0
0 0 0 0 0 0 0 0 0 0 0 0 0 0 0 0 0 0 0 0 0 0 0 0 0 0 0 0 0 0 0 0 0 0 0 0 0 0
0 0 0 0 0 0 0 0 0 0 0 0 0 0 0 0 0 0 0 0 0 0 0 0 0 0 0 0 0 0 0 0 0 0 0 0 0 0
0 0 0 0 0 0 0 0 0 0 0 0 0 0 0 0 0 0 0 0 0 0 0 0 0 0 0 0 0 0 0 0 0 0 0 0 0 0
0 0 0 0 0 0 0 0 0 0 0 0 0 0 0 0 0 0 0 0 0 0 0 0 0 0 0 0 0 0 0 0 0 0 0 0 0 0
0 0 0 0 0 0 0 0 0 0 0 0 0 0 0 0 0 0 0 0 0 0 0 0 0 0 0 0 0 0 0 0 0 0 0 0 0 0
0 0 0 0 0 0 0 0 0 0 0 0 0 0 0 0 0 0 0 0 0 0 0 0 0 0 0 0 0 0 0 0 0 0 0 0 0 0
0 0 0 0 0 0 0 0 0 0 0 0 0 0 0 0 0 0 0 0 0 0 0 0 0 0 0 0 0 0 0 0 0 0 0 0 0 0
0 0 0 0 0 0 0 0 0 0 0 0 0 0 0 0 0 0 0 0 0 0 0 0 0 0 0 0 0 0 0 0 0 0 0 0 0 0
0 0 0 0 0 0 0 0 0 0 0 0 0 0 0 0 0 0 0 0 0 0 0 0 0 0 0 0 0 0 0 0 0 0 0 0 0 0
0 0 0 0 0 0 0 0 0 0 0 0 0 0 0 0 0 0 0 0 0 0 0 0 0 0 0 0 0 0 0 0 0 0 0 0 0 0
0 0 0 0 0 0 0 0 0 0 0 0 0 0 0 0 0 0 0 0 0 0 0 0 0 0 0 0 0 0 0 0 0 0 0 0 0 0
0 0 0 0 0 0 -0 -0 -0 -0 0 0 0 0 0 0 0 0 0 0 0 0 0 0 0 0 0 0 0 0 0 0 0 0 0 0 0 0
0 0 0 0 0 0 0 0 0 0 0 0 0 0 0 0 0 0 0 0 0 0 0 0 0 0 0 0 0 0 0 0 0 0 0 0 0 0
0 0 0 0 0 0 0 0 0 0 0 0 0 0 0 0 0 0 0 0 0 0 0 0 0 0 0 0 0 0 0 0 0 0 0 0 0 0
0 0 0 0 0 0 0 0 0 0 0 0 0 0 0 0 0 0 0 0 0 0 0 0 0 0 0 0 0 0 0 0 0 0 0 0 0 0
Wind_Speed_500mb
114 114 118 111 119 120 125 121 116 77 89 95 94 92 87 97 90 85 83 74 67 60 52 46 38 39 38 25 36 38 36 31 34 39 42 48 52 55
108 109 112 111 110 126 121 119 115 113 84 78 75 82 77 75 85 82 82 72 69 62 54 47 41 44 38 30 43 41 40 34 35 40 46 48 50 58
91 101 107 105 103 109 121 120 117 115 106 93 86 76 68 65 69 80 80 79 71 65 53 48 44 45 36 40 46 44 42 45 48 52 53 47 53 55
84 91 101 101 104 109 114 115 117 108 104 102 97 78 66 64 68 82 78 70 72 63 55 53 48 47 41 46 47 45 47 49 50 52 56 60 67 70
84 87 90 92 90 95 110 113 108 106 98 94 92 77 73 61 62 62 63 76 70 59 60 53 50 50 39 47 47 48 50 48 49 53 58 66 69 69
84 83 83 80 85 91 100 99 103 102 98 89 87 80 65 63 70 58 74 74 69 70 64 53 58 46 43 47 50 50 47 47 51 54 59 65 66 62
82 82 80 76 81 85 91 95 96 95 93 85 86 81 70 70 75 65 75 75 74 73 57 63 60 45 46 46 50 46 45 48 52 51 60 65 63 55
82 82 78 75 79 78 86 89 87 85 87 87 89 84 76 74 65 70 83 74 74 66 70 71 54 48 40 48 46 43 46 50 48 51 58 63 56 54
79 80 77 73 75 75 78 79 79 75 71 78 88 83 77 70 67 80 80 78 71 65 60 58 52 43 39 46 43 43 47 48 45 52 58 58 53 55
76 72 71 72 70 69 68 68 69 66 64 69 68 68 57 54 65 67 61 62 58 58 54 48 45 38 39 40 39 44 45 42 46 53 56 54 52 56
69 66 68 69 64 61 58 58 60 59 59 58 53 51 60 54 54 58 57 51 57 60 54 46 44 39 38 35 38 41 35 43 48 53 53 49 52 57
66 66 63 61 55 53 51 52 56 61 64 61 58 60 51 50 51 42 39 51 54 50 47 46 38 33 22 31 30 29 40 44 51 47 50 50 49 54
59 57 52 50 45 36 40 46 52 55 63 60 55 50 47 44 40 39 36 40 45 47 33 30 30 32 32 32 35 36 41 46 46 46 49 46 45 46
50 44 38 34 29 27 39 37 44 53 60 61 50 41 37 36 28 24 27 33 36 39 39 39 41 38 39 42 43 40 43 45 47 47 47 41 44 45
31 27 23 20 21 25 33 30 41 53 59 54 43 33 23 15 15 25 32 39 42 42 42 39 39 41 42 44 45 44 50 46 45 35 49 51 46 48
23 16 12 11 19 27 37 33 45 45 40 37 34 21 17 15 18 23 33 41 44 43 42 41 42 42 44 42 44 45 44 41 46 47 52 52 44 43
14 6 12 16 24 32 36 33 34 35 32 28 21 14 13 20 26 29 32 37 43 43 42 44 44 46 47 45 47 44 43 47 46 47 48 57 49 43
6 2 13 16 25 30 33 33 28 30 20 23 23 21 26 34 33 33 38 41 43 42 43 45 46 47 49 50 47 42 39 44 43 45 45 57 60 43
10 10 9 23 19 23 27 30 28 26 25 28 31 36 40 41 35 36 40 43 45 46 47 49 48 47 50 53 45 43 43 40 43 47 48 51 59 51
14 12 8 2 7 16 22 27 30 31 34 37 39 43 44 40 37 37 40 43 48 51 50 49 50 47 44 45 48 45 43 48 45 51 54 55 54 52
5 7 4 5 7 9 12 17 22 28 33 39 41 40 37 34 34 35 39 42 45 49 50 49 44 43 43 47 51 50 35 37 41 49 55 57 59 57
11 11 12 14 16 18 22 23 25 30 34 34 33 32 31 31 35 38 40 42 42 42 41 44 44 42 43 46 48 48 46 38 34 39 44 44 52 51
8 11 14 18 20 22 24 25 26 27 28 29 30 31 33 34 36 38 38 38 39 40 43 42 41 42 43 44 45 44 44 43 44 41 35 35 39 42
Wind_Direction_500mb
265 264 261 266 264 270 262 264 264 255 260 263 258 260 255 245 232 226 230 230 232 234 237 239 241 257 257 261 279 283 294 306 311 314 313 317 323 326
264 263 263 261 269 268 269 263 263 259 255 265 268 263 258 249 235 228 227 229 230 232 234 237 249 254 260 267 274 283 289 299 305 309 314 321 324 323
265 263 264 266 265 267 271 269 266 261 257 261 263 260 248 242 229 223 223 227 229 230 232 241 248 252 257 269 273 280 288 293 302 311 317 321 323 324
269 267 265 265 265 267 268 268 269 268 263 254 259 251 235 224 223 222 227 219 225 227 234 241 246 251 259 264 273 279 286 294 304 312 314 318 321 324
270 269 269 268 267 264 266 269 268 265 261 256 251 236 234 229 222 218 219 223 223 224 234 242 244 251 256 268 274 279 287 295 303 308 313 318 322 324
271 271 270 268 268 268 270 269 266 264 264 255 245 239 230 226 219 212 213 215 218 224 231 238 243 243 254 264 270 280 285 295 302 309 314 318 321 328
273 272 271 269 270 269 270 271 270 268 261 249 239 230 226 214 210 208 209 212 218 224 232 234 245 241 251 259 273 277 285 294 303 309 314 316 323 329
271 271 271 268 270 268 269 272 272 267 259 249 233 227 221 211 207 205 208 208 216 225 232 241 236 242 250 265 272 274 285 295 302 309 311 315 326 324
269 272 272 267 269 270 271 272 271 267 263 255 242 231 216 210 199 210 213 216 225 230 236 238 234 241 253 263 265 276 286 296 299 308 309 319 323 319
270 270 270 266 266 268 270 268 264 256 245 239 244 228 207 206 224 224 218 221 230 240 235 233 241 246 254 257 264 277 290 288 301 305 310 319 316 317
273 270 269 270 269 267 266 261 253 245 238 234 214 204 208 228 224 214 217 220 227 228 230 238 246 252 256 258 268 278 281 293 298 302 314 314 313 313
276 275 274 272 268 266 264 258 243 234 219 208 204 207 226 221 215 217 232 224 227 226 234 232 247 254 258 262 258 271 287 295 295 305 310 309 309 311
276 276 276 275 275 269 256 250 242 234 211 203 204 206 208 214 219 220 226 230 233 236 237 227 240 248 257 264 273 278 289 291 293 303 303 303 309 312
274 278 276 274 270 248 239 242 237 218 206 203 202 205 204 209 216 229 235 239 238 240 246 248 254 259 265 273 279 288 291 293 298 301 299 298 308 308
274 280 272 250 233 220 223 224 213 203 205 201 200 196 204 212 229 233 240 240 242 249 250 255 258 265 270 277 284 290 294 299 299 301 300 303 308 310
288 272 244 219 199 205 201 203 200 208 220 219 193 193 198 227 244 255 248 241 240 243 248 255 260 269 276 279 283 289 293 293 299 298 296 299 307 308
290 235 170 158 175 192 195 200 213 217 198 196 202 222 269 281 284 269 248 241 243 246 252 257 263 272 277 280 287 290 294 296 297 296 295 297 306 310
319 205 161 167 185 195 203 207 207 195 216 233 235 256 284 291 280 262 248 248 248 248 255 258 265 273 278 281 286 294 296 296 294 293 294 299 304 312
45 70 123 174 184 209 212 207 216 254 260 257 268 273 286 290 272 262 256 254 252 252 253 257 266 272 274 283 291 293 294 294 293 292 296 299 303 310
45 36 29 22 224 233 234 243 250 260 265 270 271 278 282 275 266 261 257 257 256 254 255 262 269 271 277 282 283 286 295 295 293 297 301 300 302 306
310 327 327 303 287 272 260 257 258 261 263 267 271 272 269 265 263 260 261 262 257 257 262 268 271 268 270 278 281 292 288 283 290 296 300 302 306 307
255 268 265 261 259 256 258 261 263 268 271 269 269 268 268 264 263 264 264 263 264 264 264 263 266 270 273 277 285 287 291 291 287 286 288 293 296 290
265 267 269 270 273 274 277 280 280 278 277 277 276 274 272 270 266 264 263 263 262 262 264 267 270 273 277 280 282 285 292 298 300 294 287 291 286 283
Wind_Speed_850mb
114 114 118 111 119 120 125 121 116 77 89 95 94 92 87 97 90 85 83 74 67 60 52 46 38 39 38 25 36 38 36 31 34 39 42 48 52 55
108 109 112 111 110 126 121 119 115 113 84 78 75 82 77 75 85 82 82 72 69 62 54 47 41 44 38 30 43 41 40 34 35 40 46 48 50 58
91 101 107 105 103 109 121 120 117 115 106 93 86 76 68 65 69 80 80 79 71 65 53 48 44 45 36 40 46 44 42 45 48 52 53 47 53 55
84 91 101 101 104 109 114 115 117 108 104 102 97 78 66 64 68 82 78 70 72 63 55 53 48 47 41 46 47 45 47 49 50 52 56 60 67 70
84 87 90 92 90 95 110 113 108 106 98 94 92 77 73 61 62 62 63 76 70 59 60 53 50 50 39 47 47 48 50 48 49 53 58 66 69 69
84 83 83 80 85 91 100 99 103 102 98 89 87 80 65 63 70 58 74 74 69 70 64 53 58 46 43 47 50 50 47 47 51 54 59 65 66 62
82 82 80 76 81 85 91 95 96 95 93 85 86 81 70 70 75 65 75 75 74 73 57 63 60 45 46 46 50 46 45 48 52 51 60 65 63 55
82 82 78 75 79 78 86 89 87 85 87 87 89 84 76 74 65 70 83 74 74 66 70 71 54 48 40 48 46 43 46 50 48 51 58 63 56 54
79 80 77 73 75 75 78 79 79 75 71 78 88 83 77 70 67 80 80 78 71 65 60 58 52 43 39 46 43 43 47 48 45 52 58 58 53 55
76 72 71 72 70 69 68 68 69 66 64 69 68 68 57 54 65 67 61 62 58 58 54 48 45 38 39 40 39 44 45 42 46 53 56 54 52 56
69 66 68 69 64 61 58 58 60 59 59 58 53 51 60 54 54 58 57 51 57 60 54 46 44 39 38 35 38 41 35 43 48 53 53 49 52 57
66 66 63 61 55 53 51 52 56 61 64 61 58 60 51 50 51 42 39 51 54 50 47 46 38 33 22 31 30 29 40 44 51 47 50 50 49 54
59 57 52 50 45 36 40 46 52 55 63 60 55 50 47 44 40 39 36 40 45 47 33 30 30 32 32 32 35 36 41 46 46 46 49 46 45 46
50 44 38 34 29 27 39 37 44 53 60 61 50 41 37 36 28 24 27 33 36 39 39 39 41 38 39 42 43 40 43 45 47 47 47 41 44 45
31 27 23 20 21 25 33 30 41 53 59 54 43 33 23 15 15 25 32 39 42 42 42 39 39 41 42 44 45 44 50 46 45 35 49 51 46 48
23 16 12 11 19 27 37 33 45 45 40 37 34 21 17 15 18 23 33 41 44 43 42 41 42 42 44 42 44 45 44 41 46 47 52 52 44 43
14 6 12 16 24 32 36 33 34 35 32 28 21 14 13 20 26 29 32 37 43 43 42 44 44 46 47 45 47 44 43 47 46 47 48 57 49 43
6 2 13 16 25 30 33 33 28 30 20 23 23 21 26 34 33 33 38 41 43 42 43 45 46 47 49 50 47 42 39 44 43 45 45 57 60 43
10 10 9 23 19 23 27 30 28 26 25 28 31 36 40 41 35 36 40 43 45 46 47 49 48 47 50 53 45 43 43 40 43 47 48 51 59 51
14 12 8 2 7 16 22 27 30 31 34 37 39 43 44 40 37 37 40 43 48 51 50 49 50 47 44 45 48 45 43 48 45 51 54 55 54 52
5 7 4 5 7 9 12 17 22 28 33 39 41 40 37 34 34 35 39 42 45 49 50 49 44 43 43 47 51 50 35 37 41 49 55 57 59 57
11 11 12 14 16 18 22 23 25 30 34 34 33 32 31 31 35 38 40 42 42 42 41 44 44 42 43 46 48 48 46 38 34 39 44 44 52 51
8 11 14 18 20 22 24 25 26 27 28 29 30 31 33 34 36 38 38 38 39 40 43 42 41 42 43 44 45 44 44 43 44 41 35 35 39 42
Wind_Direction_850mb
265 264 261 266 264 270 262 264 264 255 260 263 258 260 255 245 232 226 230 230 232 234 237 239 241 257 257 261 279 283 294 306 311 314 313 317 323 326
264 263 263 261 269 268 269 263 263 259 255 265 268 263 258 249 235 228 227 229 230 232 234 237 249 254 260 267 274 283 289 299 305 309 314 321 324 323
265 263 264 266 265 267 271 269 266 261 257 261 263 260 248 242 229 223 223 227 229 230 232 241 248 252 257 269 273 280 288 293 302 311 317 321 323 324
269 267 265 265 265 267 268 268 269 268 263 254 259 251 235 224 223 222 227 219 225 227 234 241 246 251 259 264 273 279 286 294 304 312 314 318 321 324
270 269 269 268 267 264 266 269 268 265 261 256 251 236 234 229 222 218 219 223 223 224 234 242 244 251 256 268 274 279 287 295 303 308 313 318 322 324
271 271 270 268 268 268 270 269 266 264 264 255 245 239 230 226 219 212 213 215 218 224 231 238 243 243 254 264 270 280 285 295 302 309 314 318 321 328
273 272 271 269 270 269 270 271 270 268 261 249 239 230 226 214 210 208 209 212 218 224 232 234 245 241 251 259 273 277 285 294 303 309 314 316 323 329
271 271 271 268 270 268 269 272 272 267 259 249 233 227 221 211 207 205 208 208 216 225 232 241 236 242 250 265 272 274 285 295 302 309 311 315 326 324
269 272 272 267 269 270 271 272 271 267 263 255 242 231 216 210 199 210 213 216 225 230 236 238 234 241 253 263 265 276 286 296 299 308 309 319 323 319
270 270 270 266 266 268 270 268 264 256 245 239 244 228 207 206 224 224 218 221 230 240 235 233 241 246 254 257 264 277 290 288 301 305 310 319 316 317
273 270 269 270 269 267 266 261 253 245 238 234 214 204 208 228 224 214 217 220 227 228 230 238 246 252 256 258 268 278 281 293 298 302 314 314 313 313
276 275 274 272 268 266 264 258 243 234 219 208 204 207 226 221 215 217 232 224 227 226 234 232 247 254 258 262 258 271 287 295 295 305 310 309 309 311
276 276 276 275 275 269 256 250 242 234 211 203 204 206 208 214 219 220 226 230 233 236 237 227 240 248 257 264 273 278 289 291 293 303 303 303 309 312
274 278 276 274 270 248 239 242 237 218 206 203 202 205 204 209 216 229 235 239 238 240 246 248 254 259 265 273 279 288 291 293 298 301 299 298 308 308
274 280 272 250 233 220 223 224 213 203 205 201 200 196 204 212 229 233 240 240 242 249 250 255 258 265 270 277 284 290 294 299 299 301 300 303 308 310
288 272 244 219 199 205 201 203 200 208 220 219 193 193 198 227 244 255 248 241 240 243 248 255 260 269 276 279 283 289 293 293 299 298 296 299 307 308
290 235 170 158 175 192 195 200 213 217 198 196 202 222 269 281 284 269 248 241 243 246 252 257 263 272 277 280 287 290 294 296 297 296 295 297 306 310
319 205 161 167 185 195 203 207 207 195 216 233 235 256 284 291 280 262 248 248 248 248 255 258 265 273 278 281 286 294 296 296 294 293 294 299 304 312
45 70 123 174 184 209 212 207 216 254 260 257 268 273 286 290 272 262 256 254 252 252 253 257 266 272 274 283 291 293 294 294 293 292 296 299 303 310
45 36 29 22 224 233 234 243 250 260 265 270 271 278 282 275 266 261 257 257 256 254 255 262 269 271 277 282 283 286 295 295 293 297 301 300 302 306
310 327 327 303 287 272 260 257 258 261 263 267 271 272 269 265 263 260 261 262 257 257 262 268 271 268 270 278 281 292 288 283 290 296 300 302 306 307
255 268 265 261 259 256 258 261 263 268 271 269 269 268 268 264 263 264 264 263 264 264 264 263 266 270 273 277 285 287 291 291 287 286 288 293 296 290
265 267 269 270 273 274 277 280 280 278 277 277 276 274 272 270 266 264 263 263 262 262 264 267 270 273 277 280 282 285 292 298 300 294 287 291 286 283